{"data":{"norad_id":63583,"intl_designator":"2025-076Q","name":"STARLINK-33817","alt_names":[],"object_type":"PAYLOAD","status":"ACTIVE","operator":null,"country":"US","launch_date":"2025-04-14","launch_site_code":"AFETR","launch_vehicle":null,"mission":null,"orbit_class":"UNKNOWN","rcs_meters":null,"size_class":null,"mass_kg":null,"dimensions":null,"purposes":["comms"],"wikipedia_slug":null,"has_3d_model":false,"image_url":null,"decayed_at":null,"tle_current":{"epoch":"2026-09-19T19:36:44.745120Z","epoch_age_seconds":211590,"freshness":"STALE","line1":"1 63583U 25076Q   26262.81718455  .00010291  00000+0  38289-3 0  9997","line2":"2 63583  43.0003 305.0212 0001734 278.0952  81.9702 15.27588048 81518","mean_motion":15.27588048,"eccentricity":0.0001734,"inclination_deg":43.0003,"raan_deg":305.0212,"arg_perigee_deg":278.0952,"mean_anomaly_deg":81.9702,"bstar":0.00038289,"rev_number":8151,"period_min":94.266252075311,"perigee_km":481.83527204783,"apogee_km":484.21472302858,"semimajor_km":6861.1619975382,"source":"CELESTRAK","updated_at":"2026-09-21T09:00:35.047588Z"}}}